Wind_Speed
6 8 11 14 16 18 20 21 23 25 26 28 29 31 32 31 27 22 18 16 14 13 12 12 11 12 13 14 15 16 16 17 17 17 17 17 17 17 17 18 18 19
11 11 13 15 16 17 19 21 23 24 26 28 30 32 33 32 28 22 18 15 14 13 12 12 12 12 13 14 15 16 16 16 17 18 18 18 18 17 17 17 18 19
15 15 16 17 18 18 19 21 22 24 26 28 30 32 33 32 28 21 17 14 13 13 13 13 14 14 15 16 16 16 16 16 17 17 18 18 18 18 17 17 18 19
20 20 20 21 21 20 20 21 23 25 26 28 30 32 32 31 26 21 16 14 13 13 13 13 14 15 15 16 16 16 16 16 16 16 17 17 18 18 19 19 20 21
24 24 24 24 25 24 23 22 23 25 27 29 30 31 31 29 24 19 16 13 12 12 13 13 13 14 14 15 15 16 15 15 16 16 16 17 18 19 20 21 22 23
27 27 27 27 28 27 25 24 24 26 28 28 29 30 30 27 22 17 14 13 12 12 13 14 14 14 14 14 15 15 15 15 16 16 16 17 18 19 20 21 22 23
29 29 29 30 30 29 27 25 25 26 28 27 28 29 27 24 19 15 14 14 13 14 14 15 16 17 17 16 16 16 16 15 15 16 16 16 17 18 20 21 21 22
29 30 31 31 30 29 27 25 25 26 27 27 27 28 26 21 16 13 13 13 13 14 15 16 17 19 19 19 17 16 16 15 15 15 16 16 17 18 19 20 21 22
29 30 31 31 30 28 27 25 24 25 26 26 26 27 25 20 14 12 11 11 12 13 15 17 18 18 19 19 18 17 16 16 16 16 16 17 18 18 20 21 22 22
30 30 30 30 29 27 26 24 23 24 24 25 26 27 25 18 13 11 11 11 13 15 16 18 19 19 19 19 18 17 17 17 17 17 18 18 19 19 20 21 23 23
32 31 31 30 28 25 24 22 21 22 23 24 27 28 24 17 12 12 13 14 16 17 19 20 20 20 19 18 18 17 16 17 17 18 19 19 20 21 22 23 24 24
34 33 31 29 25 21 20 18 19 21 23 24 27 28 22 15 13 14 15 16 18 20 21 22 21 20 20 19 17 17 17 17 18 19 19 20 21 22 23 24 25 25
35 32 30 28 24 22 19 18 21 22 22 25 27 25 19 14 13 14 15 17 19 21 22 22 21 21 21 20 19 18 18 18 18 19 19 20 21 23 24 25 25 25
34 31 30 29 26 24 21 21 23 22 22 25 25 21 15 13 13 13 15 18 20 22 22 21 21 21 21 21 20 19 19 19 20 20 20 20 21 22 24 25 25 25
30 29 30 30 26 22 22 22 21 20 22 23 21 16 13 12 13 13 15 18 20 21 21 21 21 22 22 23 23 21 20 21 21 22 22 22 22 24 25 25 25 25
28 28 28 27 22 20 22 21 19 20 21 19 16 13 12 13 13 14 17 19 20 20 21 21 22 23 24 25 24 24 23 23 24 24 24 25 25 26 26 25 25 25
29 27 28 25 18 18 21 20 19 19 18 15 13 12 12 13 14 16 18 19 20 20 21 22 23 24 25 25 24 24 25 25 26 26 27 27 28 29 28 27 25 24
29 28 29 21 13 17 21 21 19 17 14 12 12 12 12 13 15 17 19 20 21 21 21 21 23 24 25 24 23 24 25 26 26 27 27 28 29 30 29 28 28 26
33 33 27 15 12 19 23 21 17 14 12 12 13 13 12 14 16 18 19 20 21 22 21 21 22 24 25 25 24 24 25 26 26 26 26 26 27 28 29 30 30 29
39 34 22 14 16 22 23 19 15 12 12 14 14 14 14 15 17 18 19 20 21 22 22 22 22 25 27 27 26 25 25 26 27 27 27 26 25 26 28 29 30 30
41 29 19 18 21 23 21 17 13 13 14 15 14 14 15 16 17 19 19 20 22 22 22 22 24 27 28 28 27 27 27 27 28 29 29 28 26 25 27 29 31 30
33 24 19 22 24 22 19 15 13 13 13 13 14 15 16 17 18 20 21 23 24 25 24 24 25 28 29 28 27 27 28 29 30 31 31 31 29 27 27 29 31 30
21 22 23 24 23 20 16 13 13 13 12 13 15 16 17 19 20 21 23 25 26 26 26 26 27 29 30 29 28 28 29 30 32 33 33 33 33 31 30 28 28 28
20 22 22 23 21 17 13 11 13 13 14 15 17 18 19 21 22 22 25 27 27 27 28 28 28 29 30 30 31 31 32 32 32 33 34 34 35 34 31 27 25 25
21 21 21 21 18 15 12 12 13 14 16 18 19 21 22 23 24 26 27 27 27 29 30 30 29 29 30 31 32 33 33 33 33 34 35 35 36 34 29 24 23 24
22 20 19 17 15 12 11 12 14 16 19 21 23 24 25 26 27 26 26 26 28 30 30 30 30 30 30 32 32 32 33 33 34 35 36 35 32 28 23 20 21 22
Wind_Direction
277 298 313 322 327 332 336 338 341 343 345 346 348 350 351 350 346 339 334 330 329 328 327 325 324 320 318 317 316 314 309 303 300 296 294 293 295 298 299 300 301 301
269 282 296 306 315 323 328 331 333 336 339 341 342 344 348 348 345 340 336 334 334 335 335 335 334 332 328 324 320 317 313 309 305 301 298 295 294 295 296 298 299 300
270 277 286 293 301 311 320 325 328 331 334 336 337 340 344 345 343 339 337 337 338 338 339 339 338 335 331 327 322 317 312 308 306 304 300 296 293 293 293 294 297 298
269 274 279 284 290 299 310 319 325 329 330 331 334 338 341 341 340 337 335 337 338 338 338 337 335 332 329 328 324 318 312 307 305 304 302 298 295 295 295 296 298 298
267 271 274 279 283 289 298 310 321 326 325 327 331 334 336 337 337 336 336 337 335 333 334 334 331 329 329 328 326 321 316 311 309 307 305 301 299 298 298 299 299 299
266 271 274 277 280 284 289 297 310 320 322 323 327 330 332 335 337 338 338 335 333 334 337 337 334 332 334 333 328 323 319 316 312 309 307 303 302 302 302 301 301 301
265 270 272 275 278 282 286 290 300 315 319 319 323 327 330 334 337 339 338 336 337 340 340 339 338 337 338 336 330 324 319 317 312 307 306 304 303 303 303 303 304 303
264 268 270 273 276 280 285 289 297 310 315 315 321 326 327 331 337 339 336 334 336 340 341 342 341 339 336 332 325 319 315 314 312 308 307 305 305 305 305 305 305 305
262 265 268 271 274 279 285 289 296 305 309 312 320 324 324 329 337 337 332 333 338 344 344 341 338 336 332 327 322 316 314 316 316 314 310 307 306 306 306 306 306 306
261 264 267 270 271 277 285 289 296 301 304 310 319 321 322 329 337 334 332 338 344 347 343 338 335 333 330 326 321 318 317 318 318 315 312 310 308 307 306 306 306 306
259 261 264 266 268 276 284 288 295 300 303 311 318 319 321 330 336 335 339 345 348 347 343 339 336 334 331 325 321 319 318 318 316 314 313 312 311 309 307 306 305 305
256 259 259 259 264 273 280 291 300 302 306 313 316 317 321 332 337 338 344 347 347 345 341 337 334 332 329 325 322 319 316 315 314 313 313 313 311 309 307 306 305 305
249 250 248 251 261 265 271 293 302 301 307 314 314 316 323 334 337 339 343 343 341 337 334 331 328 328 327 326 322 317 314 313 311 311 312 313 312 309 307 306 305 305
240 238 242 252 261 262 273 294 298 297 308 314 314 317 326 334 335 337 338 336 332 328 325 323 322 323 324 323 318 313 310 308 306 307 309 310 311 311 309 307 305 304
234 234 245 254 257 264 283 295 295 299 311 313 312 318 327 330 329 329 330 330 326 321 317 315 317 319 320 318 316 312 307 302 301 302 304 306 309 311 311 308 305 303
239 236 243 249 257 277 291 292 293 304 310 309 310 318 323 325 324 323 323 323 320 315 309 309 313 316 317 317 316 312 307 302 300 301 303 304 307 309 310 308 305 302
252 241 236 241 261 285 288 285 292 301 302 301 307 314 319 321 316 314 314 314 313 311 306 306 310 315 318 318 317 315 312 308 306 306 306 306 305 306 308 309 307 301
254 238 231 238 263 277 275 278 288 294 291 292 302 306 309 311 307 305 306 307 311 311 305 305 310 316 320 320 317 315 312 309 307 307 306 305 304 305 308 310 309 302
251 239 235 246 269 267 267 274 282 284 280 285 294 295 297 304 306 305 304 306 310 310 305 305 313 319 321 318 316 314 311 308 307 307 305 303 301 301 306 309 308 304
251 245 244 256 263 260 262 270 277 273 274 284 289 290 297 306 307 306 306 308 312 313 309 309 315 320 321 318 316 315 313 310 311 312 312 309 303 298 300 305 306 304
248 247 250 248 248 252 257 264 267 264 272 283 288 293 301 306 308 310 313 314 316 317 315 313 316 319 320 319 316 315 314 312 312 312 313 314 310 301 297 300 303 303
250 245 240 235 239 247 252 256 257 262 276 284 287 293 298 302 310 316 319 320 319 318 317 316 316 318 319 317 315 313 313 312 311 309 310 311 311 306 300 297 298 300
235 226 225 230 238 243 244 245 250 261 273 277 281 289 295 305 312 315 317 319 318 318 318 315 315 316 317 315 313 312 312 311 309 308 308 308 307 306 302 295 293 296
213 216 220 229 237 237 234 240 251 263 274 279 288 297 300 305 308 306 310 315 316 316 316 313 313 315 314 313 312 312 312 311 309 306 304 304 304 305 302 295 291 295
207 211 218 228 236 237 238 250 263 277 286 289 296 304 305 304 303 302 306 311 313 315 313 311 312 313 312 311 311 311 311 309 307 304 303 304 305 304 301 293 290 294
204 212 221 231 242 250 256 269 281 288 292 296 303 307 305 298 293 292 297 306 312 313 310 309 311 312 311 311 310 309 308 306 305 304 305 307 308 305 299 292 290 292
Height
3198 3198 3198 3198 3197 3196 3195 3194 3193 3191 3190 3189 3188 3186 3184 3182 3180 3179 3177 3176 3175 3174 3173 3172 3172 3171 3170 3169 3168 3166 3165 3164 3163 3162 3162 3161 3161 3160 3160 3159 3158 3157
3196 3196 3196 3196 3196 3195 3194 3193 3191 3190 3189 3187 3186 3184 3182 3180 3178 3177 3175 3174 3173 3172 3171 3170 3170 3169 3169 3168 3167 3165 3164 3162 3161 3160 3159 3159 3158 3158 3158 3157 3156 3155
3194 3194 3194 3194 3194 3194 3193 3192 3190 3189 3187 3186 3185 3183 3180 3179 3177 3175 3174 3172 3171 3170 3169 3168 3168 3167 3166 3166 3165 3163 3162 3161 3159 3158 3157 3157 3156 3156 3155 3155 3154 3153
3192 3192 3192 3192 3192 3192 3191 3190 3188 3187 3186 3184 3183 3181 3179 3177 3175 3174 3172 3171 3170 3169 3168 3167 3166 3165 3165 3164 3163 3162 3160 3159 3158 3157 3156 3155 3154 3154 3153 3153 3152 3151
3189 3189 3190 3190 3189 3189 3189 3188 3187 3186 3185 3183 3181 3180 3178 3176 3174 3172 3171 3170 3169 3168 3167 3166 3165 3164 3163 3162 3161 3160 3158 3157 3156 3155 3154 3152 3151 3151 3150 3150 3149 3148
3186 3187 3187 3187 3187 3187 3187 3186 3185 3184 3183 3182 3180 3179 3177 3174 3172 3170 3169 3168 3167 3166 3165 3164 3163 3162 3161 3160 3159 3158 3156 3155 3154 3152 3152 3150 3149 3148 3147 3147 3146 3145
3184 3184 3184 3184 3184 3184 3184 3184 3183 3183 3182 3181 3179 3178 3175 3172 3170 3169 3167 3166 3165 3164 3163 3162 3161 3159 3158 3157 3156 3155 3154 3153 3151 3150 3149 3148 3147 3146 3145 3144 3143 3142
3181 3181 3181 3181 3181 3181 3181 3181 3181 3180 3180 3179 3177 3176 3174 3171 3169 3167 3166 3165 3164 3163 3162 3161 3159 3157 3156 3155 3154 3153 3152 3150 3149 3148 3147 3145 3144 3143 3142 3140 3139 3138
3178 3178 3179 3179 3179 3179 3179 3178 3178 3178 3178 3177 3175 3174 3172 3169 3167 3166 3166 3165 3163 3162 3161 3159 3158 3156 3154 3153 3152 3151 3149 3148 3147 3145 3144 3143 3141 3140 3138 3137 3136 3135
3174 3175 3175 3175 3176 3176 3176 3176 3175 3175 3175 3174 3172 3171 3169 3167 3165 3165 3164 3163 3162 3160 3159 3158 3156 3154 3152 3151 3149 3148 3147 3146 3145 3143 3141 3140 3138 3136 3135 3134 3132 3132
3170 3171 3171 3172 3172 3173 3173 3173 3173 3173 3172 3170 3169 3167 3166 3164 3163 3162 3161 3159 3158 3157 3156 3154 3153 3151 3150 3149 3147 3146 3145 3144 3142 3140 3138 3137 3135 3134 3132 3131 3129 3128
3166 3167 3167 3168 3169 3170 3171 3171 3170 3170 3169 3167 3165 3164 3162 3160 3159 3158 3157 3155 3154 3153 3152 3151 3150 3148 3147 3146 3145 3143 3142 3141 3139 3138 3136 3134 3132 3131 3129 3127 3126 3124
3161 3162 3162 3163 3164 3166 3168 3168 3168 3167 3165 3163 3162 3160 3158 3157 3156 3155 3153 3152 3151 3151 3150 3149 3148 3146 3144 3142 3141 3140 3139 3138 3136 3135 3133 3131 3130 3128 3126 3124 3122 3121
3155 3157 3158 3160 3162 3163 3165 3165 3164 3164 3162 3160 3159 3157 3155 3154 3153 3152 3151 3151 3150 3150 3149 3148 3146 3144 3142 3140 3139 3137 3136 3135 3133 3132 3130 3129 3127 3125 3123 3121 3119 3117
3153 3155 3157 3159 3160 3161 3161 3161 3161 3160 3159 3157 3156 3154 3153 3152 3151 3151 3150 3149 3149 3148 3147 3146 3144 3142 3140 3138 3136 3135 3134 3132 3131 3129 3127 3126 3124 3122 3120 3118 3116 3114
3153 3155 3156 3157 3158 3158 3158 3158 3158 3157 3156 3155 3154 3152 3151 3150 3149 3149 3148 3147 3147 3146 3145 3144 3143 3140 3138 3136 3134 3132 3131 3129 3128 3126 3125 3122 3120 3118 3116 3115 3112 3111
3149 3151 3152 3153 3155 3156 3157 3156 3156 3155 3154 3153 3152 3150 3149 3148 3148 3147 3146 3146 3145 3144 3143 3142 3140 3138 3135 3133 3131 3129 3127 3126 3124 3123 3121 3119 3117 3115 3113 3111 3109 3107
3142 3146 3147 3149 3152 3154 3154 3154 3153 3153 3152 3151 3150 3148 3147 3147 3147 3146 3145 3144 3142 3141 3140 3139 3137 3134 3132 3130 3128 3126 3124 3122 3120 3119 3117 3115 3113 3111 3109 3107 3105 3104
3138 3142 3145 3148 3151 3152 3152 3151 3150 3150 3149 3148 3147 3147 3146 3146 3145 3144 3142 3141 3139 3138 3137 3135 3133 3131 3128 3126 3124 3123 3120 3118 3116 3114 3113 3111 3109 3107 3105 3103 3101 3100
3135 3139 3144 3147 3149 3149 3149 3148 3147 3147 3146 3146 3145 3144 3143 3142 3141 3140 3139 3137 3135 3134 3132 3131 3130 3127 3125 3122 3120 3119 3117 3115 3113 3111 3108 3107 3105 3103 3101 3100 3098 3096
3135 3139 3143 3144 3145 3146 3145 3144 3143 3143 3143 3142 3141 3140 3139 3139 3138 3136 3135 3133 3131 3130 3128 3127 3125 3123 3121 3119 3116 3115 3113 3111 3109 3107 3105 3103 3101 3099 3098 3096 3095 3093
3134 3138 3140 3140 3141 3141 3140 3140 3140 3140 3139 3138 3137 3137 3136 3135 3133 3132 3130 3128 3127 3126 3124 3122 3121 3119 3117 3115 3113 3111 3109 3107 3105 3103 3101 3099 3097 3096 3094 3093 3091 3089
3131 3133 3135 3136 3136 3136 3136 3136 3135 3135 3135 3135 3134 3133 3132 3130 3129 3127 3125 3124 3123 3122 3120 3118 3117 3115 3113 3111 3109 3107 3105 3104 3101 3099 3097 3095 3093 3092 3090 3089 3087 3085
3126 3128 3130 3131 3132 3132 3131 3131 3132 3132 3132 3131 3129 3128 3127 3125 3124 3122 3121 3121 3120 3118 3116 3115 3113 3111 3109 3107 3105 3103 3102 3100 3098 3095 3093 3091 3089 3088 3086 3085 3083 3082
3122 3124 3126 3127 3128 3128 3128 3128 3128 3128 3127 3126 3125 3124 3122 3121 3120 3118 3118 3117 3116 3115 3113 3111 3110 3108 3105 3103 3101 3100 3098 3096 3093 3091 3088 3087 3085 3083 3082 3081 3079 3078
3119 3121 3123 3124 3125 3125 3124 3124 3124 3123 3122 3121 3120 3119 3118 3116 3115 3115 3115 3115 3113 3111 3109 3107 3106 3104 3102 3100 3098 3096 3094 3091 3088 3086 3084 3083 3082 3080 3078 3077 3076 3075